TimeMDT,TemperatureF,Dew PointF,Humidity,Sea Level PressureIn,VisibilityMPH,Wind Direction,Wind SpeedMPH,Gust SpeedMPH,PrecipitationIn,Events,Conditions,WindDirDegrees,DateUTC
12:53 AM,66.0,60.1,81,30.01,10.0,East,6.9,-,N/A,,Clear,90,2013-07-24 06:53:00
1:53 AM,64.9,60.1,84,30.01,10.0,East,5.8,-,N/A,,Clear,80,2013-07-24 07:53:00
2:53 AM,64.9,60.1,84,30.01,10.0,East,6.9,-,N/A,,Clear,100,2013-07-24 08:53:00
3:53 AM,64.0,60.1,87,30.01,10.0,East,5.8,-,N/A,,Clear,100,2013-07-24 09:53:00
4:53 AM,63.0,59.0,87,30.02,10.0,East,5.8,-,N/A,,Clear,100,2013-07-24 10:53:00
5:53 AM,63.0,60.1,90,30.03,10.0,ESE,5.8,-,N/A,,Clear,110,2013-07-24 11:53:00
6:53 AM,64.0,61.0,90,30.04,8.0,ESE,6.9,-,N/A,,Clear,120,2013-07-24 12:53:00
7:29 AM,66.2,60.8,83,30.19,9.0,East,5.8,-,N/A,,Mostly Cloudy,100,2013-07-24 13:29:00
7:36 AM,66.2,60.8,83,30.19,8.0,ESE,5.8,-,N/A,,Scattered Clouds,110,2013-07-24 13:36:00
7:53 AM,69.1,61.0,75,30.04,10.0,SE,6.9,-,N/A,,Clear,130,2013-07-24 13:53:00
8:53 AM,71.1,62.1,73,30.06,10.0,South,4.6,-,N/A,,Clear,180,2013-07-24 14:53:00
9:53 AM,75.0,62.1,64,30.05,10.0,SE,6.9,-,N/A,,Clear,130,2013-07-24 15:53:00
10:53 AM,80.1,63.0,56,30.04,10.0,ESE,6.9,-,N/A,,Clear,120,2013-07-24 16:53:00
11:53 AM,84.0,62.1,47,30.01,10.0,SE,9.2,17.3,N/A,,Clear,140,2013-07-24 17:53:00
12:53 PM,87.1,60.1,40,29.97,10.0,ESE,12.7,18.4,N/A,,Scattered Clouds,110,2013-07-24 18:53:00
1:22 PM,84.2,53.6,35,30.11,10.0,SSE,12.7,-,N/A,,Partly Cloudy,160,2013-07-24 19:22:00
1:53 PM,84.9,55.9,37,29.97,10.0,South,10.4,-,N/A,,Clear,170,2013-07-24 19:53:00
2:53 PM,87.1,55.0,33,29.95,10.0,SSE,10.4,-,N/A,,Clear,150,2013-07-24 20:53:00
3:40 PM,78.8,57.2,47,30.12,10.0,NE,15.0,-,N/A,,Partly Cloudy,50,2013-07-24 21:40:00
3:53 PM,78.1,57.0,48,30.00,10.0,ENE,24.2,31.1,N/A,,Clear,60,2013-07-24 21:53:00
4:53 PM,77.0,51.1,40,29.98,10.0,East,23.0,31.1,N/A,,Clear,80,2013-07-24 22:53:00
5:53 PM,73.0,52.0,48,29.96,10.0,SE,16.1,-,N/A,,Clear,140,2013-07-24 23:53:00
6:53 PM,73.0,52.0,48,29.94,10.0,ESE,17.3,23.0,N/A,,Clear,120,2013-07-25 00:53:00
7:42 PM,68.0,57.2,68,30.16,10.0,SSW,18.4,27.6,0.00,Rain-Thunderstorm,Light Rain,200,2013-07-25 01:42:00
7:53 PM,68.0,59.0,73,30.05,10.0,South,8.1,24.2,0.00,Rain,Light Rain,180,2013-07-25 01:53:00
8:53 PM,64.9,57.9,78,29.95,10.0,South,31.1,42.6,0.00,Rain,Light Rain,190,2013-07-25 02:53:00
9:53 PM,66.0,57.0,73,29.96,10.0,South,11.5,-,0.01,,Clear,170,2013-07-25 03:53:00
10:53 PM,64.9,57.0,75,29.98,10.0,South,6.9,-,N/A,,Clear,170,2013-07-25 04:53:00
11:53 PM,64.0,57.0,78,29.99,10.0,South,12.7,20.7,N/A,,Clear,180,2013-07-25 05:53:00